Wetterdaten: Montag, 12.08.2013
Datum Zeit Temperatur Luftfeuchte Luftdruck Regen Wind Richtung Richtung Taupunkt Windchill Windben
12.08.2013 00:00 12,5 C 84 % 1022,1 hPa 0,0 l/m 0,3 km/h (0 Bft) O-SO 112 9,9 C 11,9 C 0,0 km/h (0 Bft)
12.08.2013 00:05 12,4 C 85 % 1022,1 hPa 0,0 l/m 1,0 km/h (0 Bft) O-SO 112 9,9 C 11,9 C 2,4 km/h (1 Bft)
12.08.2013 00:10 12,6 C 86 % 1022,1 hPa 0,0 l/m 1,6 km/h (1 Bft) N-NO 22 10,3 C 11,9 C 0,0 km/h (0 Bft)
12.08.2013 00:15 12,7 C 86 % 1022,1 hPa 0,0 l/m 1,6 km/h (1 Bft) NO 45 10,4 C 12,0 C 3,7 km/h (1 Bft)
12.08.2013 00:20 12,8 C 86 % 1022,2 hPa 0,0 l/m 1,6 km/h (1 Bft) O-NO 67 10,5 C 12,2 C 3,2 km/h (1 Bft)
12.08.2013 00:25 12,7 C 86 % 1022,2 hPa 0,0 l/m 1,4 km/h (1 Bft) O 90 10,4 C 12,2 C 3,9 km/h (1 Bft)
12.08.2013 00:30 12,4 C 86 % 1022,2 hPa 0,0 l/m 0,8 km/h (0 Bft) O-SO 112 10,1 C 12,1 C 0,0 km/h (0 Bft)
12.08.2013 00:35 12,0 C 85 % 1022,2 hPa 0,0 l/m 0,0 km/h (0 Bft) O-NO 67 9,6 C 11,8 C 0,0 km/h (0 Bft)
12.08.2013 00:40 12,3 C 86 % 1022,1 hPa 0,0 l/m 0,6 km/h (0 Bft) O 90 10,0 C 11,7 C 2,6 km/h (1 Bft)
12.08.2013 00:45 12,4 C 86 % 1022,1 hPa 0,0 l/m 1,6 km/h (1 Bft) O-NO 67 10,1 C 11,9 C 0,0 km/h (0 Bft)
12.08.2013 00:50 12,2 C 86 % 1022,1 hPa 0,0 l/m 1,1 km/h (1 Bft) O 90 9,9 C 11,8 C 0,0 km/h (0 Bft)
12.08.2013 00:55 11,9 C 86 % 1022,1 hPa 0,0 l/m 0,0 km/h (0 Bft) O-SO 112 9,6 C 11,6 C 0,0 km/h (0 Bft)
12.08.2013 01:00 11,8 C 86 % 1022,1 hPa 0,0 l/m 0,0 km/h (0 Bft) N-NO 22 9,5 C 11,4 C 0,0 km/h (0 Bft)
12.08.2013 01:05 12,0 C 87 % 1022,1 hPa 0,0 l/m 0,6 km/h (0 Bft) NO 45 9,9 C 11,3 C 0,0 km/h (0 Bft)
12.08.2013 01:10 12,1 C 87 % 1022,1 hPa 0,0 l/m 0,8 km/h (0 Bft) N 360 10,0 C 11,2 C 2,6 km/h (1 Bft)
12.08.2013 01:15 12,1 C 87 % 1022,1 hPa 0,0 l/m 1,1 km/h (1 Bft) O-SO 112 10,0 C 11,3 C 0,0 km/h (0 Bft)
12.08.2013 01:20 11,9 C 87 % 1022,2 hPa 0,0 l/m 1,0 km/h (0 Bft) NO 45 9,8 C 11,3 C 0,0 km/h (0 Bft)
12.08.2013 01:25 12,4 C 87 % 1022,2 hPa 0,0 l/m 1,0 km/h (0 Bft) O-SO 112 10,3 C 11,4 C 0,0 km/h (0 Bft)
12.08.2013 01:30 12,1 C 87 % 1022,2 hPa 0,0 l/m 1,0 km/h (0 Bft) O 90 10,0 C 11,5 C 0,0 km/h (0 Bft)
12.08.2013 01:35 11,7 C 87 % 1022,2 hPa 0,0 l/m 0,0 km/h (0 Bft) NO 45 9,6 C 11,3 C 0,0 km/h (0 Bft)
12.08.2013 01:40 11,8 C 87 % 1022,2 hPa 0,0 l/m 0,5 km/h (0 Bft) O-NO 67 9,7 C 11,1 C 2,4 km/h (1 Bft)
12.08.2013 01:45 11,6 C 88 % 1022,2 hPa 0,0 l/m 0,5 km/h (0 Bft) O 90 9,7 C 11,1 C 0,0 km/h (0 Bft)
12.08.2013 01:50 11,7 C 88 % 1022,2 hPa 0,0 l/m 1,0 km/h (0 Bft) O-SO 112 9,8 C 11,0 C 2,3 km/h (1 Bft)
12.08.2013 01:55 11,5 C 88 % 1022,2 hPa 0,0 l/m 0,8 km/h (0 Bft) NO 45 9,6 C 11,0 C 0,0 km/h (0 Bft)
12.08.2013 02:00 11,5 C 88 % 1022,1 hPa 0,0 l/m 0,2 km/h (0 Bft) O-SO 112 9,6 C 10,9 C 0,0 km/h (0 Bft)
12.08.2013 02:05 11,3 C 88 % 1022,1 hPa 0,0 l/m 0,0 km/h (0 Bft) NO 45 9,4 C 10,8 C 0,0 km/h (0 Bft)
12.08.2013 02:10 11,1 C 88 % 1022,1 hPa 0,0 l/m 0,0 km/h (0 Bft) O 90 9,2 C 10,7 C 0,0 km/h (0 Bft)
12.08.2013 02:15 11,5 C 88 % 1022,1 hPa 0,0 l/m 0,5 km/h (0 Bft) O-NO 67 9,6 C 10,7 C 0,0 km/h (0 Bft)
12.08.2013 02:20 11,4 C 88 % 1021,9 hPa 0,0 l/m 0,6 km/h (0 Bft) O-NO 67 9,5 C 10,7 C 2,4 km/h (1 Bft)
12.08.2013 02:25 11,2 C 88 % 1021,9 hPa 0,0 l/m 0,3 km/h (0 Bft) NO 45 9,3 C 10,7 C 0,0 km/h (0 Bft)
12.08.2013 02:30 11,0 C 88 % 1021,9 hPa 0,0 l/m 0,2 km/h (0 Bft) O-NO 67 9,1 C 10,6 C 0,0 km/h (0 Bft)
12.08.2013 02:35 11,2 C 88 % 1021,9 hPa 0,0 l/m 0,0 km/h (0 Bft) O-SO 112 9,3 C 10,4 C 0,0 km/h (0 Bft)
12.08.2013 02:40 11,0 C 88 % 1021,9 hPa 0,0 l/m 0,0 km/h (0 Bft) O 90 9,1 C 10,4 C 0,0 km/h (0 Bft)
12.08.2013 02:45 10,9 C 89 % 1021,9 hPa 0,0 l/m 0,0 km/h (0 Bft) O-NO 67 9,2 C 10,3 C 0,0 km/h (0 Bft)
12.08.2013 02:50 11,0 C 89 % 1021,9 hPa 0,0 l/m 0,0 km/h (0 Bft) O-NO 67 9,3 C 10,4 C 0,0 km/h (0 Bft)
12.08.2013 02:55 11,2 C 89 % 1021,9 hPa 0,0 l/m 0,0 km/h (0 Bft) O-SO 112 9,5 C 10,7 C 0,0 km/h (0 Bft)
12.08.2013 03:00 11,1 C 89 % 1021,7 hPa 0,0 l/m 0,0 km/h (0 Bft) NO 45 9,4 C 10,7 C 0,0 km/h (0 Bft)
12.08.2013 03:05 11,0 C 89 % 1021,7 hPa 0,0 l/m 0,0 km/h (0 Bft) NO 45 9,3 C 10,7 C 0,0 km/h (0 Bft)
12.08.2013 03:10 11,1 C 89 % 1021,7 hPa 0,0 l/m 0,0 km/h (0 Bft) O 90 9,4 C 10,7 C 0,0 km/h (0 Bft)
12.08.2013 03:15 11,1 C 89 % 1021,7 hPa 0,0 l/m 0,0 km/h (0 Bft) O 90 9,4 C 10,8 C 0,0 km/h (0 Bft)
12.08.2013 03:20 11,2 C 89 % 1021,6 hPa 0,0 l/m 0,0 km/h (0 Bft) NO 45 9,5 C 10,8 C 0,0 km/h (0 Bft)
12.08.2013 03:25 11,1 C 89 % 1021,6 hPa 0,0 l/m 0,0 km/h (0 Bft) NO 45 9,4 C 11,0 C 0,0 km/h (0 Bft)
12.08.2013 03:30 11,1 C 89 % 1021,6 hPa 0,0 l/m 0,0 km/h (0 Bft) O-NO 67 9,4 C 11,0 C 0,0 km/h (0 Bft)
12.08.2013 03:35 11,2 C 89 % 1021,6 hPa 0,0 l/m 0,0 km/h (0 Bft) NO 45 9,5 C 11,0 C 0,0 km/h (0 Bft)
12.08.2013 03:40 11,2 C 89 % 1021,6 hPa 0,0 l/m 0,0 km/h (0 Bft) O-NO 67 9,5 C 11,0 C 0,0 km/h (0 Bft)
12.08.2013 03:45 11,2 C 89 % 1021,6 hPa 0,0 l/m 0,0 km/h (0 Bft) NO 45 9,5 C 11,0 C 0,0 km/h (0 Bft)
12.08.2013 03:50 11,4 C 90 % 1021,6 hPa 0,0 l/m 0,0 km/h (0 Bft) N-NO 22 9,8 C 11,1 C 0,0 km/h (0 Bft)
12.08.2013 03:55 11,6 C 90 % 1021,6 hPa 0,0 l/m 0,0 km/h (0 Bft) N 360 10,0 C 11,2 C 0,0 km/h (0 Bft)
12.08.2013 04:00 11,5 C 90 % 1021,5 hPa 0,0 l/m 0,0 km/h (0 Bft) N-NO 22 9,9 C 11,2 C 0,0 km/h (0 Bft)
12.08.2013 04:05 11,4 C 89 % 1021,5 hPa 0,0 l/m 0,0 km/h (0 Bft) O 90 9,7 C 11,1 C 0,0 km/h (0 Bft)
12.08.2013 04:10 11,3 C 89 % 1021,5 hPa 0,0 l/m 0,0 km/h (0 Bft) NO 45 9,6 C 11,1 C 0,0 km/h (0 Bft)
12.08.2013 04:15 11,3 C 90 % 1021,5 hPa 0,0 l/m 0,2 km/h (0 Bft) NO 45 9,7 C 11,1 C 0,0 km/h (0 Bft)
12.08.2013 04:20 11,3 C 90 % 1021,4 hPa 0,0 l/m 0,2 km/h (0 Bft) NO 45 9,7 C 11,1 C 0,0 km/h (0 Bft)
12.08.2013 04:25 11,2 C 90 % 1021,4 hPa 0,0 l/m 0,2 km/h (0 Bft) NO 45 9,6 C 11,1 C 2,6 km/h (1 Bft)
12.08.2013 04:30 11,4 C 90 % 1021,4 hPa 0,0 l/m 0,5 km/h (0 Bft) O 90 9,8 C 11,1 C 2,1 km/h (1 Bft)
12.08.2013 04:35 11,4 C 90 % 1021,4 hPa 0,0 l/m 0,8 km/h (0 Bft) NO 45 9,8 C 11,1 C 0,0 km/h (0 Bft)
12.08.2013 04:40 11,1 C 90 % 1021,5 hPa 0,0 l/m 0,2 km/h (0 Bft) NO 45 9,5 C 11,1 C 0,0 km/h (0 Bft)
12.08.2013 04:45 11,0 C 90 % 1021,5 hPa 0,0 l/m 0,0 km/h (0 Bft) NO 45 9,4 C 10,8 C 0,0 km/h (0 Bft)
12.08.2013 04:50 10,9 C 90 % 1021,5 hPa 0,0 l/m 0,0 km/h (0 Bft) NO 45 9,3 C 10,8 C 0,0 km/h (0 Bft)
12.08.2013 04:55 10,9 C 90 % 1021,5 hPa 0,0 l/m 0,2 km/h (0 Bft) NO 45 9,3 C 10,7 C 1,6 km/h (1 Bft)
12.08.2013 05:00 10,8 C 90 % 1021,2 hPa 0,0 l/m 0,2 km/h (0 Bft) NO 45 9,2 C 10,7 C 0,0 km/h (0 Bft)
12.08.2013 05:05 10,6 C 90 % 1021,2 hPa 0,0 l/m 0,2 km/h (0 Bft) NO 45 9,0 C 10,5 C 0,0 km/h (0 Bft)
12.08.2013 05:10 10,5 C 90 % 1021,2 hPa 0,0 l/m 0,0 km/h (0 Bft) NO 45 8,9 C 10,4 C 0,0 km/h (0 Bft)
12.08.2013 05:15 10,8 C 91 % 1021,2 hPa 0,0 l/m 0,0 km/h (0 Bft) NO 45 9,4 C 10,4 C 0,0 km/h (0 Bft)
12.08.2013 05:20 10,6 C 90 % 1021,1 hPa 0,0 l/m 0,0 km/h (0 Bft) NO 45 9,0 C 10,5 C 0,0 km/h (0 Bft)
12.08.2013 05:25 10,4 C 90 % 1021,1 hPa 0,0 l/m 0,0 km/h (0 Bft) NO 45 8,8 C 10,4 C 0,0 km/h (0 Bft)
12.08.2013 05:30 10,4 C 90 % 1021,1 hPa 0,0 l/m 0,0 km/h (0 Bft) NO 45 8,8 C 10,3 C 0,0 km/h (0 Bft)
12.08.2013 05:35 10,3 C 90 % 1021,1 hPa 0,0 l/m 0,0 km/h (0 Bft) NO 45 8,7 C 10,2 C 0,0 km/h (0 Bft)
12.08.2013 05:40 10,5 C 91 % 1021,1 hPa 0,0 l/m 0,0 km/h (0 Bft) NO 45 9,1 C 10,2 C 0,0 km/h (0 Bft)
12.08.2013 05:45 10,5 C 91 % 1021,1 hPa 0,0 l/m 0,0 km/h (0 Bft) NO 45 9,1 C 10,2 C 0,0 km/h (0 Bft)
12.08.2013 05:50 10,6 C 91 % 1021,1 hPa 0,0 l/m 0,0 km/h (0 Bft) NO 45 9,2 C 10,2 C 0,0 km/h (0 Bft)
12.08.2013 05:55 10,8 C 91 % 1021,1 hPa 0,0 l/m 0,0 km/h (0 Bft) O-NO 67 9,4 C 10,3 C 1,8 km/h (1 Bft)
12.08.2013 06:00 10,8 C 91 % 1021,0 hPa 0,0 l/m 0,2 km/h (0 Bft) O-NO 67 9,4 C 10,4 C 1,6 km/h (1 Bft)
12.08.2013 06:05 10,8 C 91 % 1021,0 hPa 0,0 l/m 0,2 km/h (0 Bft) NO 45 9,4 C 10,6 C 0,0 km/h (0 Bft)
12.08.2013 06:10 10,7 C 91 % 1021,0 hPa 0,0 l/m 0,0 km/h (0 Bft) NO 45 9,3 C 10,4 C 0,0 km/h (0 Bft)
12.08.2013 06:15 10,7 C 91 % 1021,0 hPa 0,0 l/m 0,0 km/h (0 Bft) NO 45 9,3 C 10,4 C 0,0 km/h (0 Bft)
12.08.2013 06:20 10,6 C 91 % 1021,1 hPa 0,0 l/m 0,0 km/h (0 Bft) NO 45 9,2 C 10,4 C 0,0 km/h (0 Bft)
12.08.2013 06:25 10,6 C 91 % 1021,1 hPa 0,0 l/m 0,0 km/h (0 Bft) NO 45 9,2 C 10,4 C 0,0 km/h (0 Bft)
12.08.2013 06:30 10,7 C 91 % 1021,1 hPa 0,0 l/m 0,0 km/h (0 Bft) NO 45 9,3 C 10,4 C 0,0 km/h (0 Bft)
12.08.2013 06:35 10,7 C 91 % 1021,1 hPa 0,0 l/m 0,0 km/h (0 Bft) NO 45 9,3 C 10,6 C 0,0 km/h (0 Bft)
12.08.2013 06:40 10,6 C 91 % 1021,1 hPa 0,0 l/m 0,0 km/h (0 Bft) NO 45 9,2 C 10,9 C 0,0 km/h (0 Bft)
12.08.2013 06:45 10,7 C 91 % 1021,1 hPa 0,0 l/m 0,0 km/h (0 Bft) NO 45 9,3 C 11,4 C 0,0 km/h (0 Bft)
12.08.2013 06:50 10,8 C 91 % 1021,1 hPa 0,0 l/m 0,0 km/h (0 Bft) NO 45 9,4 C 11,6 C 0,0 km/h (0 Bft)
12.08.2013 06:55 11,2 C 91 % 1021,1 hPa 0,0 l/m 0,0 km/h (0 Bft) NO 45 9,8 C 11,4 C 0,0 km/h (0 Bft)
12.08.2013 07:00 11,3 C 91 % 1021,2 hPa 0,0 l/m 0,0 km/h (0 Bft) NO 45 9,9 C 11,8 C 0,0 km/h (0 Bft)
12.08.2013 07:05 11,6 C 91 % 1021,2 hPa 0,0 l/m 0,0 km/h (0 Bft) NO 45 10,2 C 12,6 C 0,0 km/h (0 Bft)
12.08.2013 07:10 11,8 C 91 % 1021,2 hPa 0,0 l/m 0,0 km/h (0 Bft) NO 45 10,4 C 12,5 C 0,0 km/h (0 Bft)
12.08.2013 07:15 11,9 C 91 % 1021,2 hPa 0,0 l/m 0,0 km/h (0 Bft) NO 45 10,5 C 12,7 C 0,0 km/h (0 Bft)
12.08.2013 07:20 11,9 C 91 % 1021,2 hPa 0,0 l/m 0,0 km/h (0 Bft) NO 45 10,5 C 12,6 C 0,0 km/h (0 Bft)
12.08.2013 07:25 12,2 C 91 % 1021,2 hPa 0,0 l/m 0,0 km/h (0 Bft) NO 45 10,8 C 13,3 C 0,0 km/h (0 Bft)
12.08.2013 07:30 12,4 C 91 % 1021,2 hPa 0,0 l/m 0,0 km/h (0 Bft) NO 45 11,0 C 14,0 C 0,0 km/h (0 Bft)
12.08.2013 07:35 14,5 C 89 % 1021,2 hPa 0,0 l/m 0,0 km/h (0 Bft) NO 45 12,7 C 15,5 C 0,0 km/h (0 Bft)
12.08.2013 07:40 15,6 C 87 % 1021,2 hPa 0,0 l/m 0,0 km/h (0 Bft) NO 45 13,4 C 16,4 C 0,0 km/h (0 Bft)
12.08.2013 07:45 17,0 C 84 % 1021,2 hPa 0,0 l/m 0,0 km/h (0 Bft) NO 45 14,3 C 17,1 C 0,0 km/h (0 Bft)
12.08.2013 07:50 18,0 C 82 % 1021,2 hPa 0,0 l/m 0,0 km/h (0 Bft) NO 45 14,9 C 17,9 C 0,0 km/h (0 Bft)
12.08.2013 07:55 17,0 C 80 % 1021,2 hPa 0,0 l/m 0,0 km/h (0 Bft) NO 45 13,5 C 18,6 C 0,0 km/h (0 Bft)
12.08.2013 08:00 16,5 C 79 % 1021,4 hPa 0,0 l/m 0,0 km/h (0 Bft) NO 45 12,8 C 18,2 C 0,0 km/h (0 Bft)
12.08.2013 08:05 18,6 C 75 % 1021,4 hPa 0,0 l/m 0,2 km/h (0 Bft) NO 45 14,1 C 18,2 C 0,0 km/h (0 Bft)
12.08.2013 08:10 19,2 C 71 % 1021,4 hPa 0,0 l/m 0,2 km/h (0 Bft) NO 45 13,8 C 18,9 C 0,0 km/h (0 Bft)
12.08.2013 08:15 20,1 C 69 % 1021,4 hPa 0,0 l/m 0,2 km/h (0 Bft) NO 45 14,2 C 20,5 C 0,0 km/h (0 Bft)
12.08.2013 08:20 20,4 C 65 % 1021,2 hPa 0,0 l/m 0,0 km/h (0 Bft) NO 45 13,6 C 21,0 C 0,0 km/h (0 Bft)
12.08.2013 08:25 21,0 C 63 % 1021,2 hPa 0,0 l/m 0,2 km/h (0 Bft) O-NO 67 13,7 C 21,9 C 2,4 km/h (1 Bft)
12.08.2013 08:30 21,3 C 59 % 1021,2 hPa 0,0 l/m 0,3 km/h (0 Bft) NO 45 13,0 C 22,5 C 1,6 km/h (1 Bft)
12.08.2013 08:35 21,9 C 58 % 1021,2 hPa 0,0 l/m 0,3 km/h (0 Bft) NO 45 13,3 C 23,2 C 0,0 km/h (0 Bft)
12.08.2013 08:40 22,3 C 57 % 1021,6 hPa 0,0 l/m 0,2 km/h (0 Bft) NO 45 13,4 C 23,6 C 0,0 km/h (0 Bft)
12.08.2013 08:45 22,5 C 57 % 1021,6 hPa 0,0 l/m 0,3 km/h (0 Bft) NO 45 13,5 C 24,1 C 0,0 km/h (0 Bft)
12.08.2013 08:50 22,8 C 57 % 1021,6 hPa 0,0 l/m 0,3 km/h (0 Bft) NO 45 13,8 C 24,4 C 0,0 km/h (0 Bft)
12.08.2013 08:55 22,8 C 57 % 1021,6 hPa 0,0 l/m 0,0 km/h (0 Bft) N-NO 22 13,8 C 25,1 C 0,0 km/h (0 Bft)
12.08.2013 09:00 24,3 C 53 % 1021,4 hPa 0,0 l/m 0,2 km/h (0 Bft) NO 45 14,1 C 25,2 C 0,0 km/h (0 Bft)
12.08.2013 09:05 24,2 C 53 % 1021,4 hPa 0,0 l/m 0,3 km/h (0 Bft) N-NO 22 14,0 C 25,4 C 0,0 km/h (0 Bft)
12.08.2013 09:10 23,8 C 50 % 1021,4 hPa 0,0 l/m 0,3 km/h (0 Bft) NO 45 12,7 C 25,7 C 1,9 km/h (1 Bft)
12.08.2013 09:15 24,2 C 52 % 1021,4 hPa 0,0 l/m 0,3 km/h (0 Bft) N-NO 22 13,7 C 25,8 C 0,0 km/h (0 Bft)
12.08.2013 09:20 24,2 C 50 % 1021,3 hPa 0,0 l/m 0,6 km/h (0 Bft) NW 315 13,1 C 25,9 C 2,6 km/h (1 Bft)
12.08.2013 09:25 24,1 C 49 % 1021,3 hPa 0,0 l/m 1,0 km/h (0 Bft) W-NW 292 12,7 C 25,6 C 0,0 km/h (0 Bft)
12.08.2013 09:30 24,3 C 49 % 1021,3 hPa 0,0 l/m 1,1 km/h (1 Bft) N-NW 337 12,9 C 25,8 C 2,1 km/h (1 Bft)
12.08.2013 09:35 24,6 C 46 % 1021,3 hPa 0,0 l/m 0,5 km/h (0 Bft) W-SW 247 12,2 C 26,4 C 4,3 km/h (1 Bft)
12.08.2013 09:40 24,7 C 49 % 1021,6 hPa 0,0 l/m 0,6 km/h (0 Bft) S-SW 202 13,3 C 26,6 C 2,3 km/h (1 Bft)
12.08.2013 09:45 25,5 C 47 % 1021,6 hPa 0,0 l/m 1,6 km/h (1 Bft) S-SW 202 13,3 C 26,7 C 4,8 km/h (1 Bft)
12.08.2013 09:50 25,6 C 45 % 1021,6 hPa 0,0 l/m 2,1 km/h (1 Bft) W-SW 247 12,8 C 26,4 C 0,0 km/h (0 Bft)
12.08.2013 09:55 25,9 C 45 % 1021,6 hPa 0,0 l/m 2,6 km/h (1 Bft) S-SW 202 13,0 C 26,2 C 5,3 km/h (1 Bft)
12.08.2013 10:00 26,0 C 45 % 1021,4 hPa 0,0 l/m 2,1 km/h (1 Bft) W-SW 247 13,1 C 26,4 C 3,4 km/h (1 Bft)
12.08.2013 10:05 25,6 C 43 % 1021,4 hPa 0,0 l/m 2,7 km/h (1 Bft) W-SW 247 12,1 C 26,3 C 7,6 km/h (2 Bft)
12.08.2013 10:10 25,1 C 42 % 1021,4 hPa 0,0 l/m 3,9 km/h (1 Bft) W 270 11,3 C 25,8 C 3,5 km/h (1 Bft)
12.08.2013 10:15 24,9 C 42 % 1021,4 hPa 0,0 l/m 5,1 km/h (1 Bft) W-SW 247 11,1 C 25,3 C 9,3 km/h (2 Bft)
12.08.2013 10:20 25,0 C 41 % 1021,5 hPa 0,0 l/m 4,8 km/h (1 Bft) S 180 10,8 C 25,1 C 3,4 km/h (1 Bft)
12.08.2013 10:25 25,3 C 43 % 1021,5 hPa 0,0 l/m 3,7 km/h (1 Bft) W-NW 292 11,8 C 25,4 C 2,9 km/h (1 Bft)
12.08.2013 10:30 25,2 C 41 % 1021,5 hPa 0,0 l/m 3,1 km/h (1 Bft) W 270 11,0 C 25,8 C 3,1 km/h (1 Bft)
12.08.2013 10:35 25,5 C 39 % 1021,5 hPa 0,0 l/m 2,4 km/h (1 Bft) NO 45 10,5 C 26,5 C 3,5 km/h (1 Bft)
12.08.2013 10:40 25,0 C 42 % 1021,6 hPa 0,0 l/m 1,9 km/h (1 Bft) S-SW 202 11,2 C 26,8 C 3,1 km/h (1 Bft)
12.08.2013 10:45 25,3 C 40 % 1021,6 hPa 0,0 l/m 2,3 km/h (1 Bft) S-SW 202 10,7 C 26,7 C 0,0 km/h (0 Bft)
12.08.2013 10:50 24,9 C 39 % 1021,6 hPa 0,0 l/m 2,1 km/h (1 Bft) N 360 10,0 C 27,0 C 2,4 km/h (1 Bft)
12.08.2013 10:55 25,2 C 42 % 1021,6 hPa 0,0 l/m 1,3 km/h (1 Bft) W-SW 247 11,4 C 27,5 C 4,3 km/h (1 Bft)
12.08.2013 11:00 25,3 C 42 % 1021,8 hPa 0,0 l/m 2,3 km/h (1 Bft) W-NW 292 11,5 C 27,2 C 4,5 km/h (1 Bft)
12.08.2013 11:05 25,3 C 43 % 1021,8 hPa 0,0 l/m 2,9 km/h (1 Bft) N-NO 22 11,8 C 27,0 C 3,2 km/h (1 Bft)
12.08.2013 11:10 25,5 C 42 % 1021,8 hPa 0,0 l/m 2,3 km/h (1 Bft) NW 315 11,6 C 27,1 C 2,6 km/h (1 Bft)
12.08.2013 11:15 25,6 C 42 % 1021,8 hPa 0,0 l/m 2,7 km/h (1 Bft) W-SW 247 11,7 C 27,1 C 4,8 km/h (1 Bft)
12.08.2013 11:20 26,3 C 40 % 1022,1 hPa 0,0 l/m 2,9 km/h (1 Bft) W-SW 247 11,6 C 26,9 C 1,6 km/h (1 Bft)
12.08.2013 11:25 24,7 C 41 % 1022,1 hPa 0,0 l/m 2,3 km/h (1 Bft) O-NO 67 10,6 C 27,1 C 4,3 km/h (1 Bft)
12.08.2013 11:30 25,4 C 42 % 1022,1 hPa 0,0 l/m 2,1 km/h (1 Bft) NO 45 11,5 C 26,4 C 3,1 km/h (1 Bft)
12.08.2013 11:35 24,4 C 46 % 1022,1 hPa 0,0 l/m 2,4 km/h (1 Bft) S 180 12,0 C 25,2 C 4,3 km/h (1 Bft)
12.08.2013 11:40 25,8 C 43 % 1021,6 hPa 0,0 l/m 2,6 km/h (1 Bft) SO 135 12,3 C 24,9 C 2,9 km/h (1 Bft)
12.08.2013 11:45 25,9 C 45 % 1021,6 hPa 0,0 l/m 1,8 km/h (1 Bft) NW 315 13,0 C 25,4 C 0,0 km/h (0 Bft)
12.08.2013 11:50 25,5 C 42 % 1021,6 hPa 0,0 l/m 1,3 km/h (1 Bft) N-NW 337 11,6 C 25,8 C 4,2 km/h (1 Bft)
12.08.2013 11:55 24,4 C 43 % 1021,6 hPa 0,0 l/m 2,7 km/h (1 Bft) N-NW 337 11,0 C 25,9 C 2,9 km/h (1 Bft)
12.08.2013 12:00 25,3 C 43 % 1021,8 hPa 0,0 l/m 3,2 km/h (1 Bft) N-NW 337 11,8 C 25,8 C 2,3 km/h (1 Bft)
12.08.2013 12:05 26,5 C 40 % 1021,8 hPa 0,0 l/m 1,8 km/h (1 Bft) W-SW 247 11,8 C 27,3 C 2,9 km/h (1 Bft)
12.08.2013 12:10 27,1 C 42 % 1021,8 hPa 0,0 l/m 1,6 km/h (1 Bft) S 180 13,1 C 27,9 C 2,6 km/h (1 Bft)
12.08.2013 12:15 26,5 C 41 % 1021,8 hPa 0,0 l/m 2,6 km/h (1 Bft) W-NW 292 12,2 C 28,4 C 4,2 km/h (1 Bft)
12.08.2013 12:20 26,0 C 39 % 1021,8 hPa 0,0 l/m 2,4 km/h (1 Bft) N-NW 337 11,0 C 28,6 C 5,1 km/h (1 Bft)
12.08.2013 12:25 25,6 C 42 % 1021,8 hPa 0,0 l/m 3,1 km/h (1 Bft) O-SO 112 11,7 C 28,3 C 3,9 km/h (1 Bft)
12.08.2013 12:30 26,0 C 40 % 1021,8 hPa 0,0 l/m 2,6 km/h (1 Bft) W-SW 247 11,3 C 28,8 C 0,0 km/h (0 Bft)
12.08.2013 12:35 26,7 C 39 % 1021,8 hPa 0,0 l/m 2,3 km/h (1 Bft) W-NW 292 11,6 C 29,3 C 8,0 km/h (2 Bft)
12.08.2013 12:40 26,7 C 41 % 1021,6 hPa 0,0 l/m 2,7 km/h (1 Bft) W-SW 247 12,3 C 28,8 C 2,4 km/h (1 Bft)
12.08.2013 12:45 24,6 C 47 % 1021,6 hPa 0,0 l/m 4,7 km/h (1 Bft) SO 135 12,5 C 28,1 C 4,5 km/h (1 Bft)
12.08.2013 12:50 24,8 C 46 % 1021,6 hPa 0,0 l/m 4,0 km/h (1 Bft) S 180 12,4 C 27,3 C 4,8 km/h (1 Bft)
12.08.2013 12:55 23,7 C 47 % 1021,6 hPa 0,0 l/m 3,5 km/h (1 Bft) NO 45 11,7 C 26,4 C 3,9 km/h (1 Bft)
12.08.2013 13:00 24,5 C 49 % 1021,4 hPa 0,0 l/m 2,6 km/h (1 Bft) O 90 13,1 C 26,4 C 2,3 km/h (1 Bft)
12.08.2013 13:05 26,4 C 43 % 1021,4 hPa 0,0 l/m 3,2 km/h (1 Bft) W 270 12,8 C 27,7 C 10,0 km/h (2 Bft)
12.08.2013 13:10 27,0 C 42 % 1021,4 hPa 0,0 l/m 5,3 km/h (1 Bft) S-SW 202 13,0 C 28,4 C 7,7 km/h (2 Bft)
12.08.2013 13:15 26,1 C 41 % 1021,4 hPa 0,0 l/m 6,0 km/h (2 Bft) SW 225 11,8 C 28,5 C 5,3 km/h (1 Bft)
12.08.2013 13:20 26,0 C 43 % 1021,5 hPa 0,0 l/m 5,0 km/h (1 Bft) S-SO 157 12,4 C 28,5 C 1,8 km/h (1 Bft)
12.08.2013 13:25 27,4 C 40 % 1021,5 hPa 0,0 l/m 3,4 km/h (1 Bft) S-SW 202 12,6 C 29,4 C 1,9 km/h (1 Bft)
12.08.2013 13:30 26,7 C 40 % 1021,5 hPa 0,0 l/m 3,4 km/h (1 Bft) W-SW 247 12,0 C 30,2 C 6,8 km/h (2 Bft)
12.08.2013 13:35 24,3 C 46 % 1021,5 hPa 0,0 l/m 4,2 km/h (1 Bft) W-SW 247 11,9 C 28,3 C 10,8 km/h (2 Bft)
12.08.2013 13:40 23,8 C 48 % 1021,4 hPa 0,0 l/m 4,7 km/h (1 Bft) S-SW 202 12,1 C 27,1 C 5,8 km/h (2 Bft)
12.08.2013 13:45 23,6 C 50 % 1021,4 hPa 0,0 l/m 3,5 km/h (1 Bft) W 270 12,6 C 25,9 C 3,4 km/h (1 Bft)
12.08.2013 13:50 23,4 C 49 % 1021,4 hPa 0,0 l/m 3,5 km/h (1 Bft) W-SW 247 12,1 C 25,6 C 5,1 km/h (1 Bft)
12.08.2013 13:55 23,2 C 50 % 1021,4 hPa 0,0 l/m 3,4 km/h (1 Bft) S-SW 202 12,2 C 24,9 C 3,9 km/h (1 Bft)
12.08.2013 14:00 23,1 C 52 % 1021,1 hPa 0,0 l/m 3,1 km/h (1 Bft) SO 135 12,7 C 24,6 C 2,6 km/h (1 Bft)
12.08.2013 14:05 23,3 C 54 % 1021,1 hPa 0,0 l/m 1,6 km/h (1 Bft) O 90 13,5 C 24,8 C 0,0 km/h (0 Bft)
12.08.2013 14:10 23,8 C 53 % 1021,1 hPa 0,0 l/m 1,3 km/h (1 Bft) W-SW 247 13,6 C 25,1 C 2,6 km/h (1 Bft)
12.08.2013 14:15 23,3 C 52 % 1021,1 hPa 0,0 l/m 2,7 km/h (1 Bft) S 180 12,9 C 25,1 C 4,7 km/h (1 Bft)
12.08.2013 14:20 23,2 C 51 % 1021,1 hPa 0,0 l/m 3,5 km/h (1 Bft) W 270 12,5 C 24,9 C 2,1 km/h (1 Bft)
12.08.2013 14:25 24,6 C 49 % 1021,1 hPa 0,0 l/m 3,5 km/h (1 Bft) W 270 13,2 C 25,1 C 4,3 km/h (1 Bft)
12.08.2013 14:30 25,9 C 47 % 1021,1 hPa 0,0 l/m 3,5 km/h (1 Bft) S-SW 202 13,7 C 26,5 C 2,7 km/h (1 Bft)
12.08.2013 14:35 24,7 C 46 % 1021,1 hPa 0,0 l/m 3,5 km/h (1 Bft) W-SW 247 12,3 C 27,6 C 6,6 km/h (2 Bft)
12.08.2013 14:40 24,0 C 48 % 1021,1 hPa 0,0 l/m 3,4 km/h (1 Bft) NW 315 12,3 C 27,1 C 2,1 km/h (1 Bft)
12.08.2013 14:45 24,0 C 50 % 1021,1 hPa 0,0 l/m 4,0 km/h (1 Bft) W-SW 247 12,9 C 25,9 C 2,9 km/h (1 Bft)
12.08.2013 14:50 24,2 C 49 % 1021,1 hPa 0,0 l/m 3,9 km/h (1 Bft) S-SO 157 12,8 C 25,7 C 3,7 km/h (1 Bft)
12.08.2013 14:55 24,4 C 51 % 1021,1 hPa 0,0 l/m 3,5 km/h (1 Bft) S 180 13,6 C 25,8 C 0,0 km/h (0 Bft)
12.08.2013 15:00 24,0 C 49 % 1021,1 hPa 0,0 l/m 2,7 km/h (1 Bft) SW 225 12,6 C 25,9 C 5,3 km/h (1 Bft)
12.08.2013 15:05 23,7 C 50 % 1021,1 hPa 0,0 l/m 2,1 km/h (1 Bft) W-NW 292 12,6 C 25,8 C 2,9 km/h (1 Bft)
12.08.2013 15:10 23,5 C 51 % 1021,1 hPa 0,0 l/m 1,9 km/h (1 Bft) W-NW 292 12,8 C 25,6 C 4,5 km/h (1 Bft)
12.08.2013 15:15 23,0 C 54 % 1021,1 hPa 0,0 l/m 2,3 km/h (1 Bft) S-SO 157 13,2 C 24,9 C 1,8 km/h (1 Bft)
12.08.2013 15:20 22,4 C 56 % 1020,5 hPa 0,0 l/m 3,1 km/h (1 Bft) W-SW 247 13,2 C 24,4 C 4,7 km/h (1 Bft)
12.08.2013 15:25 22,3 C 56 % 1020,5 hPa 0,0 l/m 2,7 km/h (1 Bft) W-SW 247 13,1 C 23,7 C 1,9 km/h (1 Bft)
12.08.2013 15:30 22,3 C 56 % 1020,5 hPa 0,0 l/m 2,7 km/h (1 Bft) W 270 13,1 C 23,7 C 6,3 km/h (2 Bft)
12.08.2013 15:35 22,3 C 56 % 1020,5 hPa 0,0 l/m 2,4 km/h (1 Bft) SW 225 13,1 C 23,6 C 2,4 km/h (1 Bft)
12.08.2013 15:40 22,7 C 56 % 1020,1 hPa 0,0 l/m 1,9 km/h (1 Bft) NW 315 13,5 C 23,8 C 0,0 km/h (0 Bft)
12.08.2013 15:45 22,2 C 56 % 1020,1 hPa 0,0 l/m 1,4 km/h (1 Bft) S 180 13,0 C 24,2 C 2,7 km/h (1 Bft)
12.08.2013 15:50 22,5 C 58 % 1020,1 hPa 0,0 l/m 1,4 km/h (1 Bft) W-SW 247 13,8 C 24,1 C 0,0 km/h (0 Bft)
12.08.2013 15:55 22,6 C 57 % 1020,1 hPa 0,0 l/m 0,8 km/h (0 Bft) N-NW 337 13,6 C 24,3 C 0,0 km/h (0 Bft)
12.08.2013 16:00 22,9 C 58 % 1020,2 hPa 0,0 l/m 1,4 km/h (1 Bft) SW 225 14,2 C 24,4 C 1,9 km/h (1 Bft)
12.08.2013 16:05 22,9 C 57 % 1020,2 hPa 0,0 l/m 3,4 km/h (1 Bft) S 180 13,9 C 24,6 C 4,7 km/h (1 Bft)
12.08.2013 16:10 22,9 C 56 % 1020,2 hPa 0,0 l/m 3,7 km/h (1 Bft) S-SW 202 13,6 C 24,5 C 7,9 km/h (2 Bft)
12.08.2013 16:15 22,6 C 56 % 1020,2 hPa 0,0 l/m 3,2 km/h (1 Bft) W 270 13,4 C 24,3 C 2,3 km/h (1 Bft)
12.08.2013 16:20 22,4 C 57 % 1020,2 hPa 0,0 l/m 3,1 km/h (1 Bft) S 180 13,5 C 23,9 C 1,8 km/h (1 Bft)
12.08.2013 16:25 21,6 C 58 % 1020,2 hPa 0,0 l/m 3,2 km/h (1 Bft) S 180 13,0 C 23,1 C 10,3 km/h (2 Bft)
12.08.2013 16:30 21,4 C 58 % 1020,2 hPa 0,0 l/m 4,2 km/h (1 Bft) W-SW 247 12,8 C 22,6 C 5,8 km/h (2 Bft)
12.08.2013 16:35 21,2 C 59 % 1020,2 hPa 0,0 l/m 4,3 km/h (1 Bft) W 270 12,9 C 22,2 C 5,0 km/h (1 Bft)
12.08.2013 16:40 21,2 C 60 % 1019,9 hPa 0,0 l/m 3,7 km/h (1 Bft) SW 225 13,1 C 21,9 C 4,3 km/h (1 Bft)
12.08.2013 16:45 21,5 C 60 % 1019,9 hPa 0,0 l/m 3,2 km/h (1 Bft) SO 135 13,4 C 22,1 C 4,3 km/h (1 Bft)
12.08.2013 16:50 21,1 C 63 % 1019,9 hPa 0,0 l/m 3,1 km/h (1 Bft) S 180 13,8 C 21,5 C 3,1 km/h (1 Bft)
12.08.2013 16:55 19,7 C 72 % 1019,9 hPa 0,0 l/m 2,9 km/h (1 Bft) SW 225 14,5 C 19,7 C 0,0 km/h (0 Bft)
12.08.2013 17:00 19,4 C 75 % 1020,0 hPa 0,0 l/m 2,3 km/h (1 Bft) O 90 14,8 C 19,5 C 2,9 km/h (1 Bft)
12.08.2013 17:05 19,6 C 76 % 1020,0 hPa 0,0 l/m 1,3 km/h (1 Bft) NO 45 15,2 C 19,9 C 1,9 km/h (1 Bft)
12.08.2013 17:10 20,2 C 76 % 1020,0 hPa 0,0 l/m 1,1 km/h (1 Bft) SO 135 15,8 C 22,0 C 4,5 km/h (1 Bft)
12.08.2013 17:15 21,0 C 77 % 1020,0 hPa 0,0 l/m 2,6 km/h (1 Bft) W-SW 247 16,8 C 24,6 C 3,4 km/h (1 Bft)
12.08.2013 17:20 21,2 C 76 % 1020,2 hPa 0,0 l/m 3,4 km/h (1 Bft) O 90 16,8 C 25,7 C 3,5 km/h (1 Bft)
12.08.2013 17:25 21,3 C 77 % 1020,2 hPa 0,0 l/m 3,4 km/h (1 Bft) S-SW 202 17,1 C 26,6 C 4,2 km/h (1 Bft)
12.08.2013 17:30 21,4 C 77 % 1020,2 hPa 0,0 l/m 3,2 km/h (1 Bft) SO 135 17,2 C 26,6 C 4,8 km/h (1 Bft)
12.08.2013 17:35 21,4 C 78 % 1020,2 hPa 0,0 l/m 2,7 km/h (1 Bft) S 180 17,4 C 26,1 C 2,3 km/h (1 Bft)
12.08.2013 17:40 21,5 C 76 % 1020,6 hPa 0,0 l/m 2,6 km/h (1 Bft) S 180 17,1 C 26,9 C 4,2 km/h (1 Bft)
12.08.2013 17:45 21,2 C 75 % 1020,6 hPa 0,0 l/m 3,1 km/h (1 Bft) O-NO 67 16,6 C 27,2 C 5,8 km/h (2 Bft)
12.08.2013 17:50 20,9 C 75 % 1020,6 hPa 0,0 l/m 3,1 km/h (1 Bft) O-SO 112 16,3 C 27,3 C 5,3 km/h (1 Bft)
12.08.2013 17:55 20,9 C 75 % 1020,6 hPa 0,0 l/m 2,6 km/h (1 Bft) SO 135 16,3 C 27,2 C 0,0 km/h (0 Bft)
12.08.2013 18:00 20,6 C 72 % 1020,1 hPa 0,0 l/m 2,7 km/h (1 Bft) O-SO 112 15,4 C 27,4 C 1,8 km/h (1 Bft)
12.08.2013 18:05 20,4 C 74 % 1020,1 hPa 0,0 l/m 1,6 km/h (1 Bft) S-SW 202 15,6 C 27,4 C 3,4 km/h (1 Bft)
12.08.2013 18:10 20,8 C 71 % 1020,1 hPa 0,0 l/m 1,8 km/h (1 Bft) S-SO 157 15,3 C 27,9 C 7,2 km/h (2 Bft)
12.08.2013 18:15 21,0 C 66 % 1020,1 hPa 0,0 l/m 4,2 km/h (1 Bft) S-SO 157 14,4 C 27,4 C 5,5 km/h (1 Bft)
12.08.2013 18:20 21,1 C 65 % 1019,9 hPa 0,0 l/m 5,1 km/h (1 Bft) S-SW 202 14,3 C 27,4 C 4,5 km/h (1 Bft)
12.08.2013 18:25 21,1 C 63 % 1019,9 hPa 0,0 l/m 4,5 km/h (1 Bft) S-SW 202 13,8 C 27,3 C 9,2 km/h (2 Bft)
12.08.2013 18:30 20,8 C 63 % 1019,9 hPa 0,0 l/m 5,5 km/h (1 Bft) S 180 13,5 C 26,3 C 7,4 km/h (2 Bft)
12.08.2013 18:35 20,9 C 61 % 1019,9 hPa 0,0 l/m 7,1 km/h (2 Bft) NO 45 13,1 C 25,3 C 12,6 km/h (3 Bft)
12.08.2013 18:40 20,5 C 61 % 1019,5 hPa 0,0 l/m 6,9 km/h (2 Bft) S-SW 202 12,7 C 24,7 C 4,5 km/h (1 Bft)
12.08.2013 18:45 19,9 C 62 % 1019,5 hPa 0,0 l/m 5,5 km/h (1 Bft) S 180 12,4 C 22,9 C 14,2 km/h (3 Bft)
12.08.2013 18:50 19,6 C 62 % 1019,5 hPa 0,0 l/m 4,0 km/h (1 Bft) SO 135 12,1 C 22,2 C 2,7 km/h (1 Bft)
12.08.2013 18:55 19,2 C 64 % 1019,5 hPa 0,0 l/m 3,2 km/h (1 Bft) S-SW 202 12,2 C 21,4 C 3,7 km/h (1 Bft)
12.08.2013 19:00 19,1 C 65 % 1019,1 hPa 0,0 l/m 3,5 km/h (1 Bft) O 90 12,4 C 21,0 C 4,5 km/h (1 Bft)
12.08.2013 19:05 18,8 C 66 % 1019,1 hPa 0,0 l/m 2,9 km/h (1 Bft) S-SO 157 12,3 C 20,5 C 15,1 km/h (3 Bft)
12.08.2013 19:10 19,0 C 65 % 1019,1 hPa 0,0 l/m 3,1 km/h (1 Bft) S-SO 157 12,3 C 20,4 C 6,8 km/h (2 Bft)
12.08.2013 19:15 18,8 C 65 % 1019,1 hPa 0,0 l/m 3,7 km/h (1 Bft) S 180 12,1 C 20,2 C 5,1 km/h (1 Bft)
12.08.2013 19:20 19,0 C 65 % 1019,1 hPa 0,0 l/m 2,4 km/h (1 Bft) O 90 12,3 C 20,9 C 0,0 km/h (0 Bft)
12.08.2013 19:25 19,0 C 65 % 1019,1 hPa 0,0 l/m 1,8 km/h (1 Bft) S-SW 202 12,3 C 22,7 C 8,5 km/h (2 Bft)
12.08.2013 19:30 19,4 C 63 % 1019,1 hPa 0,0 l/m 3,9 km/h (1 Bft) NW 315 12,2 C 22,5 C 6,8 km/h (2 Bft)
12.08.2013 19:35 19,3 C 63 % 1019,1 hPa 0,0 l/m 6,1 km/h (2 Bft) SW 225 12,1 C 22,4 C 6,1 km/h (2 Bft)
12.08.2013 19:40 19,1 C 62 % 1019,6 hPa 0,0 l/m 6,1 km/h (2 Bft) S 180 11,6 C 21,8 C 5,5 km/h (1 Bft)
12.08.2013 19:45 19,1 C 63 % 1019,6 hPa 0,0 l/m 6,0 km/h (2 Bft) S 180 11,9 C 21,9 C 5,3 km/h (1 Bft)
12.08.2013 19:50 19,0 C 63 % 1019,6 hPa 0,0 l/m 6,0 km/h (2 Bft) S 180 11,8 C 22,3 C 5,8 km/h (2 Bft)
12.08.2013 19:55 18,6 C 64 % 1019,6 hPa 0,0 l/m 5,6 km/h (1 Bft) O-SO 112 11,7 C 21,6 C 8,0 km/h (2 Bft)
12.08.2013 20:00 18,7 C 64 % 1019,2 hPa 0,0 l/m 5,5 km/h (1 Bft) S 180 11,7 C 21,7 C 6,9 km/h (2 Bft)
12.08.2013 20:05 18,4 C 65 % 1019,2 hPa 0,0 l/m 6,0 km/h (2 Bft) S-SO 157 11,7 C 21,8 C 6,4 km/h (2 Bft)
12.08.2013 20:10 18,3 C 65 % 1019,2 hPa 0,0 l/m 5,8 km/h (2 Bft) SO 135 11,6 C 21,6 C 5,3 km/h (1 Bft)
12.08.2013 20:15 17,9 C 66 % 1019,2 hPa 0,0 l/m 5,1 km/h (1 Bft) S 180 11,5 C 21,4 C 5,5 km/h (1 Bft)
12.08.2013 20:20 17,8 C 66 % 1019,1 hPa 0,0 l/m 4,0 km/h (1 Bft) SO 135 11,4 C 21,0 C 3,1 km/h (1 Bft)
12.08.2013 20:25 17,7 C 66 % 1019,1 hPa 0,0 l/m 2,9 km/h (1 Bft) NO 45 11,3 C 20,4 C 2,9 km/h (1 Bft)
12.08.2013 20:30 17,5 C 66 % 1019,1 hPa 0,0 l/m 1,6 km/h (1 Bft) O 90 11,1 C 19,5 C 0,0 km/h (0 Bft)
12.08.2013 20:35 17,1 C 67 % 1019,1 hPa 0,0 l/m 0,5 km/h (0 Bft) SO 135 10,9 C 18,5 C 0,0 km/h (0 Bft)
12.08.2013 20:40 17,0 C 68 % 1018,9 hPa 0,0 l/m 0,2 km/h (0 Bft) O 90 11,0 C 18,0 C 0,0 km/h (0 Bft)
12.08.2013 20:45 17,3 C 68 % 1018,9 hPa 0,0 l/m 1,3 km/h (1 Bft) NO 45 11,3 C 17,4 C 3,1 km/h (1 Bft)
12.08.2013 20:50 17,3 C 68 % 1018,9 hPa 0,0 l/m 2,4 km/h (1 Bft) O 90 11,3 C 17,2 C 4,0 km/h (1 Bft)
12.08.2013 20:55 16,8 C 70 % 1018,9 hPa 0,0 l/m 2,7 km/h (1 Bft) N-NW 337 11,3 C 16,7 C 0,0 km/h (0 Bft)
12.08.2013 21:00 16,1 C 71 % 1018,9 hPa 0,0 l/m 1,8 km/h (1 Bft) NO 45 10,8 C 16,3 C 2,7 km/h (1 Bft)
12.08.2013 21:05 16,2 C 73 % 1018,9 hPa 0,0 l/m 1,9 km/h (1 Bft) O 90 11,4 C 15,8 C 4,5 km/h (1 Bft)
12.08.2013 21:10 16,0 C 74 % 1018,9 hPa 0,0 l/m 3,4 km/h (1 Bft) O 90 11,4 C 15,7 C 4,8 km/h (1 Bft)
12.08.2013 21:15 15,7 C 76 % 1018,9 hPa 0,0 l/m 4,0 km/h (1 Bft) O 90 11,5 C 15,6 C 4,2 km/h (1 Bft)
12.08.2013 21:20 15,5 C 76 % 1018,9 hPa 0,0 l/m 3,1 km/h (1 Bft) O-SO 112 11,3 C 15,4 C 0,0 km/h (0 Bft)
12.08.2013 21:25 15,3 C 76 % 1018,9 hPa 0,0 l/m 1,8 km/h (1 Bft) O 90 11,1 C 14,9 C 3,1 km/h (1 Bft)
12.08.2013 21:30 15,2 C 77 % 1018,9 hPa 0,0 l/m 1,8 km/h (1 Bft) O-SO 112 11,2 C 14,8 C 1,6 km/h (1 Bft)
12.08.2013 21:35 15,0 C 77 % 1018,9 hPa 0,0 l/m 1,3 km/h (1 Bft) O 90 11,0 C 14,6 C 0,0 km/h (0 Bft)
12.08.2013 21:40 14,6 C 78 % 1018,8 hPa 0,0 l/m 0,5 km/h (0 Bft) O 90 10,8 C 14,4 C 1,8 km/h (1 Bft)
12.08.2013 21:45 14,4 C 78 % 1018,8 hPa 0,0 l/m 0,2 km/h (0 Bft) O-SO 112 10,6 C 14,1 C 0,0 km/h (0 Bft)
12.08.2013 21:50 14,1 C 79 % 1018,8 hPa 0,0 l/m 0,2 km/h (0 Bft) O-SO 112 10,5 C 13,8 C 0,0 km/h (0 Bft)
12.08.2013 21:55 14,3 C 80 % 1018,8 hPa 0,0 l/m 0,5 km/h (0 Bft) O 90 10,9 C 13,6 C 0,0 km/h (0 Bft)
12.08.2013 22:00 14,3 C 80 % 1018,8 hPa 0,0 l/m 0,6 km/h (0 Bft) O-NO 67 10,9 C 13,6 C 2,4 km/h (1 Bft)
12.08.2013 22:05 14,4 C 82 % 1018,8 hPa 0,0 l/m 1,8 km/h (1 Bft) O 90 11,4 C 13,6 C 4,0 km/h (1 Bft)
12.08.2013 22:10 14,6 C 82 % 1018,8 hPa 0,0 l/m 2,7 km/h (1 Bft) O-SO 112 11,6 C 13,8 C 2,9 km/h (1 Bft)
12.08.2013 22:15 14,1 C 81 % 1018,8 hPa 0,0 l/m 1,6 km/h (1 Bft) O-NO 67 10,9 C 13,8 C 0,0 km/h (0 Bft)
12.08.2013 22:20 13,9 C 81 % 1018,9 hPa 0,0 l/m 0,5 km/h (0 Bft) S 180 10,7 C 13,7 C 0,0 km/h (0 Bft)
12.08.2013 22:25 14,0 C 83 % 1018,9 hPa 0,0 l/m 0,3 km/h (0 Bft) NO 45 11,2 C 13,6 C 2,1 km/h (1 Bft)
12.08.2013 22:30 14,1 C 83 % 1018,9 hPa 0,0 l/m 0,3 km/h (0 Bft) NO 45 11,3 C 13,7 C 0,0 km/h (0 Bft)
12.08.2013 22:35 14,4 C 83 % 1018,9 hPa 0,0 l/m 0,6 km/h (0 Bft) S 180 11,5 C 13,8 C 0,0 km/h (0 Bft)
12.08.2013 22:40 14,3 C 83 % 1018,8 hPa 0,0 l/m 0,5 km/h (0 Bft) NO 45 11,5 C 13,8 C 2,3 km/h (1 Bft)
12.08.2013 22:45 14,5 C 83 % 1018,8 hPa 0,0 l/m 0,8 km/h (0 Bft) O-NO 67 11,6 C 14,0 C 2,1 km/h (1 Bft)
12.08.2013 22:50 14,5 C 82 % 1018,8 hPa 0,0 l/m 1,0 km/h (0 Bft) S-SW 202 11,5 C 14,1 C 0,0 km/h (0 Bft)
12.08.2013 22:55 14,4 C 82 % 1018,8 hPa 0,0 l/m 0,5 km/h (0 Bft) S 180 11,4 C 14,2 C 2,9 km/h (1 Bft)
12.08.2013 23:00 14,8 C 83 % 1019,0 hPa 0,0 l/m 1,8 km/h (1 Bft) O 90 11,9 C 14,4 C 2,1 km/h (1 Bft)
12.08.2013 23:05 14,8 C 83 % 1019,0 hPa 0,0 l/m 2,9 km/h (1 Bft) O 90 11,9 C 14,8 C 2,4 km/h (1 Bft)
12.08.2013 23:10 14,7 C 82 % 1019,0 hPa 0,0 l/m 1,8 km/h (1 Bft) S-SW 202 11,7 C 14,7 C 0,0 km/h (0 Bft)
12.08.2013 23:15 14,6 C 83 % 1019,0 hPa 0,0 l/m 1,3 km/h (1 Bft) SO 135 11,7 C 14,6 C 0,0 km/h (0 Bft)
12.08.2013 23:20 14,5 C 82 % 1018,8 hPa 0,0 l/m 0,8 km/h (0 Bft) O 90 11,5 C 14,6 C 0,0 km/h (0 Bft)
12.08.2013 23:25 14,4 C 82 % 1018,8 hPa 0,0 l/m 0,5 km/h (0 Bft) O-SO 112 11,4 C 14,4 C 2,6 km/h (1 Bft)
12.08.2013 23:30 14,7 C 83 % 1018,8 hPa 0,0 l/m 1,4 km/h (1 Bft) SO 135 11,8 C 14,6 C 2,9 km/h (1 Bft)
12.08.2013 23:35 14,6 C 82 % 1018,8 hPa 0,0 l/m 2,4 km/h (1 Bft) W-NW 292 11,6 C 14,8 C 3,9 km/h (1 Bft)
12.08.2013 23:40 14,6 C 83 % 1018,8 hPa 0,0 l/m 1,9 km/h (1 Bft) O-NO 67 11,7 C 14,8 C 1,8 km/h (1 Bft)
12.08.2013 23:45 14,2 C 82 % 1018,8 hPa 0,0 l/m 1,0 km/h (0 Bft) NO 45 11,2 C 14,6 C 0,0 km/h (0 Bft)
12.08.2013 23:50 14,1 C 82 % 1018,8 hPa 0,0 l/m 0,3 km/h (0 Bft) S 180 11,1 C 14,4 C 1,8 km/h (1 Bft)
12.08.2013 23:55 13,9 C 83 % 1018,8 hPa 0,0 l/m 0,2 km/h (0 Bft) SO 135 11,1 C 14,3 C 0,0 km/h (0 Bft)
_ Min-Zeit 05:35 12:35 23:55 - 08:55 - - 05:35 05:50 23:55
Minimum _ 10,3 C 39 % 1018,8 hPa - 0,0 km/h (0 Bft) - - 8,7 C 10,2 C 0,0 km/h (0 Bft)
_ Max-Zeit 13:25 07:30 01:55 23:55 18:35 - - 17:35 13:30 19:05
Maximum _ 27,4 C 91 % 1022,2 hPa 0,0 l/m 7,1 km/h
NO (2 Bft)
- - 17,4 C 30,2 C 15,1 km/h
S-SO (3 Bft)
Durchschnitt _ 17,9 C 70 % 1020,8 hPa #0,0 l/m 1,8 km/h (1 Bft) S - 11,7 C 19,0 C 2,3 km/h (1 Bft)